Showing default

COSMOS 2476 (GLONASS), 37867

Orbit data source: Space-Track

COSMOS 2476 (GLONASS), 37867 is a Commonwealth of Independent States-origin payload satellite in MEO that was launched on Fri, 04 Nov 2011 UTC via a PROTON-M/BRIZ-M launch vehicle from the Tyuratam Missile And Space Complex (TTMTR). Payload-class satellites include a variety of spacecraft equipped with specific instruments for various scientific and technological missions. These include communications satellites like Starlink; space stations such as the ISS; scientific satellites like the Hubble; Earth observation satellites from companies like Planet Labs, Umbra, and HawkEye 360; GPS; miniature CubeSats for education and research; and military/defense satellites.

Loading next visibility...
Identifier
37867, 2011-064A
Orbit
MEO
Country
Flag of CISCIS
Related business
Manufacturer
Resehetnev ISS
Mission
Operational Defense Navigation
Bus & Motor
URAGAN, Unknown motor
Mass
1,450 kg wet, ~1,200 kg dry
Launch date (UTC)
2011-11-04 (15 years ago)
Launch vehicle
PROTON-M/BRIZ-M
Launch site
Tyuratam Missile And Space Complex (TTMTR)
Object type
Payload
Rocket body
Debris
Shape & HBR
Cyl + 1 Ant + 2 Pan, 3.9 m
Radar Cross Section
8.467 m², Large (>1 m²)

Expand to show TLE details & history
Last TLE update: 2 days ago

TLE from 2 days ago
0 COSMOS 2476 (GLONASS)
1 37867U 11064A   26254.09797262  .00000010  00000-0  00000-0 0  9995
2 37867  65.3238  69.9735 0022536 230.7215 322.0571  2.13103670115591
Epoch: 2026-09-11T02:21Z
TLE epoch observation values (Epoch: 2026-09-11T02:21:04.834Z)
Latitude
-11.48646°
Longitude
-130.07876°
Altitude
19,087.422 km
Speed
3.96 km/s
True Right ascension
17h 01m 16s
True Declination
-11° 28' 04"
Sunlit
Object was in daylight at epoch
Visualization orbit readout
Latitude
Unknown
Longitude
Unknown
Altitude
Unknown
Speed
Unknown
Apparent Right ascension
Unknown
Apparent Declination
Unknown
Sunlit
N/A
Visualization observer readout
Local Sidereal Time
02:05:27
Azimuth
Unknown
Elevation
Unknown
Doppler factor
Unknown
Orbital elements
Apogee altitude
19,186.842 km
Perigee altitude
19,071.874 km
Semi-major axis
25,507.495 km
Eccentricity
0.00225
Inclination
65.3238°
RAAN
69.9735°
Arg. of periapsis
230.7215°
True anomaly
321.89796°
Mean anomaly
322.0571°
Eccentric anomaly
321.97756°
Mean motion
0.53277 °/min
Orbital period
675.71 mins
BSTAR
0
Loading maneuver chart data...
Computing Atmospheric mass density...
Loading historical data...
Loading historical data...
Loading historical data...
Loading historical data...
Loading historical data...
Loading historical data...
Loading historical data...

Documentation

Showing up to 5 results
|